{"data":{"norad_id":53912,"intl_designator":"2022-119AC","name":"STARLINK-5059","alt_names":[],"object_type":"PAYLOAD","status":"ACTIVE","operator":null,"country":"US","launch_date":"2022-09-24","launch_site_code":"AFETR","launch_vehicle":null,"mission":null,"orbit_class":"UNKNOWN","rcs_meters":null,"size_class":null,"mass_kg":null,"dimensions":null,"purposes":["comms"],"wikipedia_slug":null,"has_3d_model":false,"image_url":null,"decayed_at":null,"tle_current":{"epoch":"2026-09-20T03:04:07.527360Z","epoch_age_seconds":119090,"freshness":"FRESH","line1":"1 53912U 22119AC  26263.12786490 -.00004157  00000+0 -24313-3 0  9995","line2":"2 53912  53.1598 160.2315 0001125  83.8328 276.2792 15.08858848221186","mean_motion":15.08858848,"eccentricity":0.0001125,"inclination_deg":53.1598,"raan_deg":160.2315,"arg_perigee_deg":83.8328,"mean_anomaly_deg":276.2792,"bstar":-0.00024313,"rev_number":22118,"period_min":95.436362513878,"perigee_km":538.90752370546,"apogee_km":540.46403383068,"semimajor_km":6917.8227787681,"source":"CELESTRAK","updated_at":"2026-09-21T09:00:33.033232Z"}}}